Location: Agadir Irigdalene
(31.2522°N, 8.7797°W)
Time: 16:14:57
(UTC+00:00)

Cosmos 923 Rocket - Pass Details

Date: 01 December 2020
Orbit: 757 x 786 km, 74.0° (Epoch: 25 January)

Event Time Altitude Azimuth Distance (km) Brightness Sun altitude
Rises 18:52:29 0° 202° (SSW) 3,198 7.8 -16.9°
Reaches altitude 10° 18:54:52 10° 205° (SSW) 2,276 7.0 -17.4°
Maximum altitude 18:59:59 65° 287° (WNW) 830 4.3 -18.4°
Drops below altitude 10° 19:05:09 10° 10° (N) 2,295 6.2 -19.5°
Enters shadow 19:05:30 - 10° (N) 2,431 6.4 -19.6°
